Volver al catálogo

STARLINK-2049

ActivoComunicacionesVLEO
NORAD 47356·PAYLOAD·🇺🇸 United States

Lanzado Jan 20, 2021 desde Cape Canaveral Space Force Station

Loading…

Próximos Pases (próximas 24 horas)

TLE

ActualizadoSource: CelesTrak SupGP

Época: Sep 14, 2026, 12:17 UTC

1 47356C 21005H   26257.51229167 -.00005222  00000+0 -16803-3 0  2578
2 47356  53.1568 238.2382 0001277  81.1904 271.2159 15.31686294    16

Sigue STARLINK-2049 en tiempo real con AllMySat

Download on the App Store